Regional Weather Roundup
Issued by NWS

Home | Current Version | Previous Version | Text Only | Print | Product List | Glossary Off
Versions: 1 2 3 4 5 6 7 8 9 10 11 12 13 14 15 16 17 18 19 20 21 22 23 24 25 26

000
ASUS45 KBOU 272107
RWRCO

WEATHER ROUNDUP FOR COLORADO
NATIONAL WEATHER SERVICE DENVER/BOULDER CO
300 PM MDT THU JUL 27 2017

NOTE: "FAIR" INDICATES FEW OR NO CLOUDS BELOW 12000 FEET WITH NO
SIGNIFICANT WEATHER AND/OR OBSTRUCTIONS TO VISIBILITY.

COZ001>005-013-030-031-272200-
...NORTHWEST COLORADO...

CITY           SKY/WX    TMP DP  RH WIND       PRES   REMARKS
CRAIG          FAIR      88  47  24 SW8       30.22F
HAYDEN         FAIR      82  43  24 W9        30.25F
MEEKER         FAIR      87  45  23 MISG      30.23F
RABBIT EARS PA FAIR      64  46  52 W5G18     30.59S
STEAMBOAT SPGS FAIR      82  50  33 W7G16     30.26F
WALDEN         FAIR      77  43  29 W10       30.38F
$$

COZ006>008-011-272200-
...WEST CENTRAL VALLEYS...

CITY           SKY/WX    TMP DP  RH WIND       PRES   REMARKS
GRAND JUNCTION FAIR      95  45  17 W10       30.08F
MONTROSE       FAIR      89  45  21 W7        30.18F
EAGLE          MOSUNNY   84  46  26 W6        30.24F
RIFLE          FAIR      91  48  22 W3        30.14F
DELTA          FAIR      95  47  19 S5        30.12F
NUCLA          FAIR      91  39  16 CALM      30.20F
$$

COZ017>023-064>068-272200-
...SOUTHWEST COLORADO...

CITY           SKY/WX    TMP DP  RH WIND       PRES   REMARKS
DURANGO        FAIR      84  45  25 N9        30.24F
CORTEZ         FAIR      91  48  22 S8        30.16F
PAGOSA SPRINGS FAIR      76  45  32 NW8       30.35F
TELLURIDE      CLOUDY    70  49  48 SE9       30.47S THUNDER
WOLF CREEK PAS FAIR      54  45  71 N8G20     30.75S
$$

COZ009-010-012-014-032>034-037-058>063-272200-
...CENTRAL COLORADO...

CITY           SKY/WX    TMP DP  RH WIND       PRES   REMARKS
ASPEN          FAIR      84  42  22 N9G17     30.31F
BUENA VISTA    FAIR      80  42  26 SE13G18   30.32S
COPPER MTN     FAIR      66  32  28 N8G22     30.69S
BERTHOUD PASS  PTSUNNY   55  45  67 NW12G17   30.74S
COTTONWOOD PAS FAIR      72  50  46 SE10      30.49F
GUNNISON       FAIR      80  49  33 SW9       30.30F
KREMMLING      FAIR      86  48  26 SW5       30.32F
LEADVILLE      FAIR      74  38  27 N8        30.45F
MONARCH PASS   CLOUDY    54  46  76 N12       30.80R
SALIDA         FAIR      77  51  40 SW9       30.39R
SUNLIGHT       FAIR      66  41  39 W7        30.62F
WILKERSON PASS TSTM      55  48  76 NE15G21   30.64F
$$

COZ069>075-272200-
...SAN LUIS VALLEY/SANGRE DE CRISTO MOUNTAINS...

CITY           SKY/WX    TMP DP  RH WIND       PRES   REMARKS
ALAMOSA        FAIR      74  54  49 W16       30.31F
DEL NORTE      FAIR      65  50  56 W17G24    30.39R
LA VETA PASS   NOT AVBL
SAGUACHE         N/A    N/A N/A N/A MISG        N/A
$$

COZ035-036-038>040-272200-
...NORTHERN COLORADO FRONT RANGE...

CITY           SKY/WX    TMP DP  RH WIND       PRES   REMARKS
DENVER INTL AP FAIR      84  56  38 SE9       30.17F
DMNS CITY PARK   N/A     86  55  34 NW8G16    30.15F
AURORA         PTSUNNY   83  59  44 SE12G18   30.19F
FRONT RANGE AP FAIR      84  55  37 S7G20     30.20F
ERIE MUNI ARPT FAIR      87  53  30 SE3       30.15F
BOULDER MUN AP FAIR      82  57  42 SW5       30.18F
CENTENNIAL     FAIR      81  57  43 VRB5      30.20F
BROOMFIELD     FAIR      82  55  39 NW6       30.20F
FORT COLLINS   FAIR      84  62  47 S8        30.16F
LONGMONT       FAIR      88  56  34 E6        30.17F
$$

COZ041-046-047-076>085-087-088-272200-
...PIKES PEAK/PALMER DIVIDE AND SOUTHERN FOOTHILLS...

CITY           SKY/WX    TMP DP  RH WIND       PRES   REMARKS
COLO. SPRINGS  PTSUNNY   76  60  57 SE12      30.28F
A. F. ACADEMY  PTSUNNY   75  59  58 S12       30.28F
SCHRIEVER AFB  PTSUNNY   74  58  57 S7G18     30.28F
CHEYENNE MTN   PTSUNNY   69  59  71 S13       30.27F
ELLICOTT       PTSUNNY  N/A N/A N/A SE10      30.26F
FALCON           N/A     73  58  60 S9        30.33F
FORT CARSON    PTSUNNY   77  62  59 S9        30.25F
LIMON          PTSUNNY   80  62  54 SE12      30.21F
MONUMENT HILL  FAIR      73  59  60 S9        30.33F
CANON CITY     MOSUNNY   82  64  54 E12G18    30.21F
WALSENBURG     MOCLDY    86  57  37 N5        30.23F
TRINIDAD       FAIR      83  60  45 E12       30.20F
$$

COZ042>045-048>051-090-091-272200-
...NORTHEAST COLORADO...

CITY           SKY/WX    TMP DP  RH WIND       PRES   REMARKS
GREELEY ARPT   FAIR      89  59  36 S12       30.13F
AKRON          FAIR      84  58  40 SE9G18    30.16F
BURLINGTON     FAIR      82  64  54 E10       30.16F
WRAY           NOT AVBL
YUMA           FAIR      82  54  36 SE13G21   30.15F
STERLING       FAIR      90  61  37 SE9       30.10F
HOLYOKE        FAIR      84  64  51 S10       30.14F
FORT MORGAN    FAIR      89  53  29 SE13      30.13F
$$

COZ086-089-092>099-272200-
...SOUTHEAST COLORADO...

CITY           SKY/WX    TMP DP  RH WIND       PRES   REMARKS
PUEBLO         FAIR      82  61  48 VRB6G16   30.16F
LA JUNTA       FAIR      83  65  54 SE9G16    30.14F
LAMAR          PTSUNNY   79  67  66 NE12      30.13F
SPRINGFIELD      N/A     73  67  81 E10       30.17F
$$




USA.gov is the U.S. government's official web portal to all federal, state and local government web resources and services.